| time (UTC) | temp F | wind direction | speed MPH | gust MPH | rain 1hr in | rain 24hr in | rain mn in | humidity % | barometer mb |
| 20260504215505 | 79 | 134 | 2.0 | 7.0 | 0.00 | 0.00 | 0.00 | 21 | 1003.5 |
| 20260504215003 | 79 | 117 | 2.0 | 14.0 | 0.00 | 0.00 | 0.00 | 20 | 1003.4 |
| 20260504214503 | 79 | 109 | 2.0 | 14.0 | 0.00 | 0.00 | 0.00 | 21 | 1003.6 |
| 20260504214003 | 79 | 140 | 3.0 | 15.0 | 0.00 | 0.00 | 0.00 | 22 | 1003.6 |
| 20260504213503 | 79 | 170 | 7.0 | 19.0 | 0.00 | 0.00 | 0.00 | 20 | 1003.7 |
| 20260504213003 | 80 | 176 | 10.0 | 23.0 | 0.00 | 0.00 | 0.00 | 20 | 1003.3 |
| 20260504212505 | 80 | 176 | 10.0 | 23.0 | 0.00 | 0.00 | 0.00 | 20 | 1003.3 |
| 20260504212003 | 81 | 175 | 6.0 | 23.0 | 0.00 | 0.00 | 0.00 | 19 | 1003.1 |
| 20260504211503 | 82 | 173 | 4.0 | 11.0 | 0.00 | 0.00 | 0.00 | 18 | 1003.4 |
| 20260504211004 | 83 | 174 | 3.0 | 11.0 | 0.00 | 0.00 | 0.00 | 17 | 1003.5 |
| 20260504210503 | 83 | 200 | 2.0 | 5.0 | 0.00 | 0.00 | 0.00 | 17 | 1003.5 |
| 20260504210004 | 83 | 220 | 2.0 | 5.0 | 0.00 | 0.00 | 0.00 | 15 | 1003.5 |
| 20260504205503 | 84 | 227 | 2.0 | 6.0 | 0.00 | 0.00 | 0.00 | 16 | 1003.4 |
| 20260504205003 | 84 | 240 | 2.0 | 6.0 | 0.00 | 0.00 | 0.00 | 16 | 1003.5 |
| 20260504204505 | 84 | 333 | 2.0 | 6.0 | 0.00 | 0.00 | 0.00 | 16 | 1003.5 |
| 20260504204003 | 84 | 291 | 4.0 | 13.0 | 0.00 | 0.00 | 0.00 | 17 | 1003.5 |
| 20260504203503 | 84 | 217 | 5.0 | 13.0 | 0.00 | 0.00 | 0.00 | 16 | 1003.5 |
| 20260504203003 | 84 | 190 | 3.0 | 8.0 | 0.00 | 0.00 | 0.00 | 16 | 1003.7 |
| 20260504202503 | 84 | 205 | 2.0 | 8.0 | 0.00 | 0.00 | 0.00 | 16 | 1003.6 |
| 20260504202003 | 84 | 231 | 2.0 | 7.0 | 0.00 | 0.00 | 0.00 | 16 | 1003.7 |
| 20260504201503 | 84 | 259 | 2.0 | 7.0 | 0.00 | 0.00 | 0.00 | 17 | 1003.9 |
| 20260504201003 | 84 | 336 | 2.0 | 5.0 | 0.00 | 0.00 | 0.00 | 16 | 1003.9 |
| 20260504200503 | 85 | 347 | 1.0 | 5.0 | 0.00 | 0.00 | 0.00 | 17 | 1003.9 |
| 20260504200004 | 86 | 328 | 1.0 | 5.0 | 0.00 | 0.00 | 0.00 | 18 | 1004.0 |
| 20260504195503 | 85 | 116 | 0.0 | 3.0 | 0.00 | 0.00 | 0.00 | 20 | 1004.0 |
| 20260504195003 | 84 | 104 | 1.0 | 4.0 | 0.00 | 0.00 | 0.00 | 20 | 1004.1 |
| 20260504194503 | 83 | 57 | 1.0 | 6.0 | 0.00 | 0.00 | 0.00 | 18 | 1004.2 |
| 20260504194005 | 83 | 356 | 2.0 | 6.0 | 0.00 | 0.00 | 0.00 | 18 | 1004.3 |
| 20260504193503 | 83 | 360 | 2.0 | 6.0 | 0.00 | 0.00 | 0.00 | 17 | 1004.4 |
| 20260504193003 | 84 | 353 | 1.0 | 4.0 | 0.00 | 0.00 | 0.00 | 18 | 1004.4 |
| 20260504192503 | 84 | 196 | 1.0 | 4.0 | 0.00 | 0.00 | 0.00 | 20 | 1004.6 |
| 20260504192005 | 83 | 198 | 3.0 | 6.0 | 0.00 | 0.00 | 0.00 | 18 | 1004.7 |
| 20260504191503 | 83 | 189 | 4.0 | 7.0 | 0.00 | 0.00 | 0.00 | 19 | 1004.8 |
| 20260504191003 | 83 | 183 | 3.0 | 7.0 | 0.00 | 0.00 | 0.00 | 18 | 1004.9 |
| 20260504190504 | 82 | 32 | 2.0 | 6.0 | 0.00 | 0.00 | 0.00 | 20 | 1005.0 |
| 20260504190003 | 82 | 5 | 1.0 | 4.0 | 0.00 | 0.00 | 0.00 | 19 | 1005.0 |
| 20260504185503 | 82 | 329 | 2.0 | 8.0 | 0.00 | 0.00 | 0.00 | 19 | 1005.1 |
| 20260504185005 | 83 | 336 | 2.0 | 8.0 | 0.00 | 0.00 | 0.00 | 19 | 1005.1 |
| 20260504184503 | 83 | 105 | 1.0 | 8.0 | 0.00 | 0.00 | 0.00 | 19 | 1005.0 |
| 20260504184003 | 83 | 162 | 2.0 | 8.0 | 0.00 | 0.00 | 0.00 | 19 | 1005.2 |
| 20260504183505 | 82 | 165 | 2.0 | 6.0 | 0.00 | 0.00 | 0.00 | 21 | 1005.2 |
| 20260504183003 | 82 | 136 | 2.0 | 6.0 | 0.00 | 0.00 | 0.00 | 20 | 1005.2 |
| 20260504182503 | 81 | 354 | 2.0 | 7.0 | 0.00 | 0.00 | 0.00 | 22 | 1005.5 |
| 20260504182003 | 80 | 342 | 2.0 | 7.0 | 0.00 | 0.00 | 0.00 | 21 | 1005.5 |
| 20260504181503 | 79 | 346 | 2.0 | 9.0 | 0.00 | 0.00 | 0.00 | 22 | 1005.6 |
| 20260504181003 | 79 | 353 | 2.0 | 9.0 | 0.00 | 0.00 | 0.00 | 21 | 1005.6 |
| 20260504180504 | 79 | 43 | 1.0 | 3.0 | 0.00 | 0.00 | 0.00 | 22 | 1005.8 |
| 20260504180003 | 78 | 49 | 1.0 | 4.0 | 0.00 | 0.00 | 0.00 | 23 | 1005.7 |
| 20260504175503 | 78 | 28 | 1.0 | 4.0 | 0.00 | 0.00 | 0.00 | 25 | 1005.8 |
| 20260504175003 | 78 | 13 | 1.0 | 3.0 | 0.00 | 0.00 | 0.00 | 24 | 1005.9 |
| 20260504174503 | 78 | 8 | 1.0 | 3.0 | 0.00 | 0.00 | 0.00 | 25 | 1006.0 |
| 20260504174003 | 78 | 45 | 1.0 | 4.0 | 0.00 | 0.00 | 0.00 | 25 | 1006.0 |
| 20260504173503 | 78 | 36 | 1.0 | 4.0 | 0.00 | 0.00 | 0.00 | 24 | 1006.1 |
| 20260504173003 | 78 | 29 | 1.0 | 4.0 | 0.00 | 0.00 | 0.00 | 25 | 1006.0 |
| 20260504172503 | 79 | 35 | 2.0 | 4.0 | 0.00 | 0.00 | 0.00 | 24 | 1006.1 |
| 20260504172003 | 78 | 5 | 2.0 | 8.0 | 0.00 | 0.00 | 0.00 | 25 | 1006.2 |
| 20260504171503 | 78 | 358 | 2.0 | 8.0 | 0.00 | 0.00 | 0.00 | 23 | 1006.2 |
| 20260504171005 | 78 | 360 | 2.0 | 9.0 | 0.00 | 0.00 | 0.00 | 23 | 1006.2 |
| 20260504170503 | 77 | 2 | 2.0 | 9.0 | 0.00 | 0.00 | 0.00 | 25 | 1006.2 |
| 20260504151003 | 70 | 309 | 6.0 | 11.0 | 0.00 | 0.00 | 0.00 | 31 | 1006.7 |
| 20260504150504 | 69 | 308 | 6.0 | 12.0 | 0.00 | 0.00 | 0.00 | 33 | 1006.7 |
| 20260504141003 | 60 | 326 | 4.0 | 8.0 | 0.00 | 0.00 | 0.00 | 49 | 1007.0 |
| 20260504140505 | 59 | 318 | 3.0 | 6.0 | 0.00 | 0.00 | 0.00 | 50 | 1006.9 |
| 20260504130503 | 48 | 298 | 2.0 | 6.0 | 0.00 | 0.00 | 0.00 | 68 | 1006.8 |
| 20260504110503 | 41 | 0 | 0.0 | 0.0 | 0.00 | 0.00 | 0.00 | 71 | 1006.1 |
| 20260504100503 | 42 | 215 | 0.0 | 3.0 | 0.00 | 0.00 | 0.00 | 70 | 1006.6 |
| 20260504082004 | 46 | 211 | 0.0 | 2.0 | 0.00 | 0.00 | 0.00 | 64 | 1007.2 |
| 20260504081503 | 46 | 211 | 0.0 | 2.0 | 0.00 | 0.00 | 0.00 | 63 | 1007.3 |
| 20260504081003 | 47 | 211 | 0.0 | 1.0 | 0.00 | 0.00 | 0.00 | 63 | 1007.5 |
| 20260504080505 | 47 | 0 | 0.0 | 0.0 | 0.00 | 0.00 | 0.00 | 62 | 1007.6 |
| 20260504050503 | 55 | 0 | 0.0 | 0.0 | 0.00 | 0.00 | 0.00 | 50 | 1008.4 |
| 20260504050004 | 55 | 0 | 0.0 | 0.0 | 0.00 | 0.00 | 0.00 | 50 | 1008.5 |
| 20260504045503 | 56 | 0 | 0.0 | 0.0 | 0.00 | 0.00 | 0.00 | 49 | 1008.6 |
| 20260504045005 | 56 | 0 | 0.0 | 0.0 | 0.00 | 0.00 | 0.00 | 49 | 1008.7 |
| 20260504044504 | 56 | 0 | 0.0 | 0.0 | 0.00 | 0.00 | 0.00 | 49 | 1008.6 |
| 20260504044003 | 56 | 0 | 0.0 | 0.0 | 0.00 | 0.00 | 0.00 | 49 | 1008.7 |
| 20260504043503 | 56 | 0 | 0.0 | 0.0 | 0.00 | 0.00 | 0.00 | 48 | 1008.7 |
| 20260504043003 | 57 | 0 | 0.0 | 0.0 | 0.00 | 0.00 | 0.00 | 48 | 1008.7 |
| 20260504042503 | 57 | 0 | 0.0 | 0.0 | 0.00 | 0.00 | 0.00 | 47 | 1008.8 |
| 20260504042003 | 57 | 0 | 0.0 | 0.0 | 0.00 | 0.00 | 0.00 | 47 | 1008.9 |
| 20260504041504 | 57 | 0 | 0.0 | 0.0 | 0.00 | 0.00 | 0.00 | 46 | 1009.0 |
| 20260504041003 | 57 | 0 | 0.0 | 0.0 | 0.00 | 0.00 | 0.00 | 46 | 1008.9 |
| 20260504040503 | 58 | 0 | 0.0 | 0.0 | 0.00 | 0.00 | 0.00 | 45 | 1008.9 |
| 20260504040005 | 58 | 0 | 0.0 | 0.0 | 0.00 | 0.00 | 0.00 | 45 | 1009.0 |
| 20260504035503 | 58 | 0 | 0.0 | 0.0 | 0.00 | 0.00 | 0.00 | 45 | 1009.1 |
| 20260504035003 | 58 | 0 | 0.0 | 0.0 | 0.00 | 0.00 | 0.00 | 44 | 1009.0 |
| 20260504034503 | 58 | 0 | 0.0 | 0.0 | 0.00 | 0.00 | 0.00 | 44 | 1009.1 |
| 20260504034005 | 58 | 0 | 0.0 | 0.0 | 0.00 | 0.00 | 0.00 | 43 | 1009.1 |
| 20260504033503 | 59 | 0 | 0.0 | 0.0 | 0.00 | 0.00 | 0.00 | 43 | 1009.1 |
| 20260504033003 | 59 | 0 | 0.0 | 0.0 | 0.00 | 0.00 | 0.00 | 42 | 1009.1 |
| 20260504032503 | 59 | 0 | 0.0 | 0.0 | 0.00 | 0.00 | 0.00 | 41 | 1009.1 |
| 20260504032003 | 60 | 0 | 0.0 | 0.0 | 0.00 | 0.00 | 0.00 | 40 | 1009.1 |
| 20260504031503 | 60 | 0 | 0.0 | 0.0 | 0.00 | 0.00 | 0.00 | 40 | 1009.1 |
| 20260504031004 | 61 | 0 | 0.0 | 0.0 | 0.00 | 0.00 | 0.00 | 39 | 1009.0 |
| 20260504030503 | 62 | 0 | 0.0 | 0.0 | 0.00 | 0.00 | 0.00 | 38 | 1009.0 |
| 20260504030003 | 62 | 0 | 0.0 | 0.0 | 0.00 | 0.00 | 0.00 | 37 | 1008.9 |
| 20260504025505 | 63 | 0 | 0.0 | 0.0 | 0.00 | 0.00 | 0.00 | 36 | 1008.9 |
| 20260504025003 | 64 | 0 | 0.0 | 0.0 | 0.00 | 0.00 | 0.00 | 36 | 1008.8 |
| 20260504024504 | 64 | 0 | 0.0 | 0.0 | 0.00 | 0.00 | 0.00 | 35 | 1008.8 |
| 20260504024003 | 65 | 0 | 0.0 | 0.0 | 0.00 | 0.00 | 0.00 | 35 | 1008.8 |
| 20260504023503 | 65 | 0 | 0.0 | 0.0 | 0.00 | 0.00 | 0.00 | 34 | 1008.7 |
| 20260504023003 | 66 | 0 | 0.0 | 0.0 | 0.00 | 0.00 | 0.00 | 34 | 1008.7 |
| 20260504022503 | 67 | 0 | 0.0 | 0.0 | 0.00 | 0.00 | 0.00 | 33 | 1008.6 |
| 20260504022003 | 68 | 22 | 0.0 | 2.0 | 0.00 | 0.00 | 0.00 | 32 | 1008.6 |
| 20260504021505 | 68 | 22 | 0.0 | 2.0 | 0.00 | 0.00 | 0.00 | 31 | 1008.6 |
| 20260504021003 | 69 | 0 | 0.0 | 0.0 | 0.00 | 0.00 | 0.00 | 31 | 1008.6 |
| 20260504020503 | 70 | 0 | 0.0 | 0.0 | 0.00 | 0.00 | 0.00 | 30 | 1008.5 |
| 20260504020003 | 70 | 0 | 0.0 | 0.0 | 0.00 | 0.00 | 0.00 | 29 | 1008.5 |
| 20260504015503 | 71 | 22 | 0.0 | 3.0 | 0.00 | 0.00 | 0.00 | 29 | 1008.5 |
| 20260504015003 | 72 | 22 | 0.0 | 3.0 | 0.00 | 0.00 | 0.00 | 28 | 1008.4 |
| 20260504014503 | 73 | 0 | 0.0 | 0.0 | 0.00 | 0.00 | 0.00 | 27 | 1008.4 |
| 20260504014003 | 74 | 0 | 0.0 | 0.0 | 0.00 | 0.00 | 0.00 | 26 | 1008.4 |
| 20260504013505 | 74 | 0 | 0.0 | 0.0 | 0.00 | 0.00 | 0.00 | 25 | 1008.4 |
| 20260504013003 | 76 | 0 | 0.0 | 0.0 | 0.00 | 0.00 | 0.00 | 24 | 1008.5 |
| 20260504012503 | 76 | 0 | 0.0 | 0.0 | 0.00 | 0.00 | 0.00 | 23 | 1008.4 |
| 20260504012003 | 77 | 0 | 0.0 | 0.0 | 0.00 | 0.00 | 0.00 | 23 | 1008.4 |
| 20260504011503 | 78 | 0 | 0.0 | 0.0 | 0.00 | 0.00 | 0.00 | 22 | 1008.3 |
| 20260504011003 | 78 | 0 | 0.0 | 0.0 | 0.00 | 0.00 | 0.00 | 21 | 1008.4 |
| 20260504010503 | 79 | 0 | 0.0 | 0.0 | 0.00 | 0.00 | 0.00 | 21 | 1008.3 |
| 20260504010003 | 80 | 0 | 0.0 | 0.0 | 0.00 | 0.00 | 0.00 | 21 | 1008.4 |
| 20260504005503 | 80 | 22 | 0.0 | 1.0 | 0.00 | 0.00 | 0.00 | 20 | 1008.4 |
| 20260504005004 | 80 | 22 | 0.0 | 1.0 | 0.00 | 0.00 | 0.00 | 21 | 1008.5 |
| 20260504004505 | 80 | 22 | 0.0 | 2.0 | 0.00 | 0.00 | 0.00 | 21 | 1008.5 |
| 20260504004003 | 79 | 22 | 0.0 | 2.0 | 0.00 | 0.00 | 0.00 | 22 | 1008.5 |
| 20260504003503 | 79 | 0 | 0.0 | 0.0 | 0.00 | 0.00 | 0.00 | 24 | 1008.6 |
| 20260504003003 | 78 | 0 | 0.0 | 0.0 | 0.00 | 0.00 | 0.00 | 24 | 1008.6 |
| 20260504002503 | 78 | 0 | 0.0 | 0.0 | 0.00 | 0.00 | 0.00 | 22 | 1008.6 |
| 20260504002003 | 78 | 0 | 0.0 | 0.0 | 0.00 | 0.00 | 0.00 | 22 | 1008.6 |
| 20260504001503 | 78 | 22 | 0.0 | 1.0 | 0.00 | 0.00 | 0.00 | 21 | 1008.6 |
| 20260504001005 | 78 | 22 | 0.0 | 3.0 | 0.00 | 0.00 | 0.00 | 19 | 1008.6 |
| 20260504000503 | 79 | 22 | 0.0 | 3.0 | 0.00 | 0.00 | 0.00 | 19 | 1008.7 |
| 20260504000004 | 80 | 105 | 0.0 | 1.0 | 0.00 | 0.00 | 0.00 | 18 | 1008.8 |
| 20260503235503 | 81 | 86 | 1.0 | 3.0 | 0.00 | 0.00 | 0.00 | 19 | 1008.8 |
| 20260503235003 | 81 | 47 | 1.0 | 3.0 | 0.00 | 0.00 | 0.00 | 18 | 1008.8 |
| 20260503234503 | 82 | 350 | 1.0 | 5.0 | 0.00 | 0.00 | 0.00 | 19 | 1008.9 |
| 20260503234003 | 82 | 347 | 2.0 | 5.0 | 0.00 | 0.00 | 0.00 | 18 | 1008.9 |
| 20260503233503 | 82 | 360 | 1.0 | 5.0 | 0.00 | 0.00 | 0.00 | 19 | 1008.9 |
| 20260503233005 | 83 | 88 | 0.0 | 2.0 | 0.00 | 0.00 | 0.00 | 17 | 1009.0 |
| 20260503232503 | 83 | 103 | 0.0 | 2.0 | 0.00 | 0.00 | 0.00 | 19 | 1008.9 |
| 20260503232005 | 83 | 68 | 0.0 | 1.0 | 0.00 | 0.00 | 0.00 | 19 | 1008.9 |
| 20260503231503 | 82 | 74 | 0.0 | 1.0 | 0.00 | 0.00 | 0.00 | 19 | 1008.9 |
| 20260503231003 | 82 | 76 | 0.0 | 3.0 | 0.00 | 0.00 | 0.00 | 19 | 1008.9 |
| 20260503230503 | 82 | 7 | 1.0 | 5.0 | 0.00 | 0.00 | 0.00 | 20 | 1008.9 |
| 20260503230003 | 82 | 358 | 1.0 | 5.0 | 0.00 | 0.00 | 0.00 | 19 | 1009.0 |
| 20260503225503 | 82 | 353 | 1.0 | 3.0 | 0.00 | 0.00 | 0.00 | 19 | 1009.0 |
| 20260503225003 | 82 | 330 | 1.0 | 5.0 | 0.00 | 0.00 | 0.00 | 18 | 1009.0 |
| 20260503224505 | 82 | 343 | 1.0 | 5.0 | 0.00 | 0.00 | 0.00 | 17 | 1009.0 |
| 20260503224003 | 82 | 5 | 1.0 | 4.0 | 0.00 | 0.00 | 0.00 | 18 | 1009.1 |
| 20260503223503 | 83 | 9 | 1.0 | 4.0 | 0.00 | 0.00 | 0.00 | 17 | 1009.1 |
| 20260503223003 | 82 | 351 | 2.0 | 9.0 | 0.00 | 0.00 | 0.00 | 18 | 1009.2 |
| 20260503222503 | 82 | 336 | 2.0 | 9.0 | 0.00 | 0.00 | 0.00 | 18 | 1009.3 |
| 20260503222003 | 82 | 329 | 3.0 | 8.0 | 0.00 | 0.00 | 0.00 | 18 | 1009.4 |
| 20260503221503 | 82 | 343 | 2.0 | 8.0 | 0.00 | 0.00 | 0.00 | 18 | 1009.4 |
| 20260503221005 | 82 | 2 | 1.0 | 5.0 | 0.00 | 0.00 | 0.00 | 18 | 1009.5 |
| 20260503220503 | 82 | 344 | 1.0 | 5.0 | 0.00 | 0.00 | 0.00 | 18 | 1009.6 |
| 20260503220003 | 82 | 3 | 2.0 | 5.0 | 0.00 | 0.00 | 0.00 | 18 | 1009.7 |